| time (UTC) | temp F | wind direction | speed knots | gust knots | rain 1hr in | rain 24hr in | rain mn in | humidity % | barometer mb |
| 20260508064825 | 53 | 205 | 0.0 | 0.0 | 0.00 | 0.00 | 0.00 | 25 | 1017.0 |
| 20260508064320 | 53 | 205 | 0.0 | 0.0 | 0.00 | 0.00 | 0.00 | 25 | 1017.0 |
| 20260508063838 | 53 | 205 | 0.0 | 0.0 | 0.00 | 0.00 | 0.00 | 25 | 1017.0 |
| 20260508063337 | 53 | 205 | 0.0 | 0.0 | 0.00 | 0.00 | 0.00 | 25 | 1017.0 |
| 20260508062818 | 53 | 205 | 0.0 | 0.0 | 0.00 | 0.00 | 0.00 | 25 | 1017.1 |
| 20260508062323 | 53 | 205 | 0.0 | 0.0 | 0.00 | 0.00 | 0.00 | 25 | 1017.0 |
| 20260508061815 | 53 | 205 | 0.0 | 0.0 | 0.00 | 0.00 | 0.00 | 26 | 1017.0 |
| 20260508061321 | 53 | 205 | 0.0 | 0.0 | 0.00 | 0.00 | 0.00 | 26 | 1017.0 |
| 20260508060832 | 53 | 205 | 0.0 | 0.0 | 0.00 | 0.00 | 0.00 | 26 | 1016.9 |
| 20260508060326 | 53 | 205 | 0.0 | 0.0 | 0.00 | 0.00 | 0.00 | 26 | 1016.9 |
| 20260508055810 | 53 | 205 | 0.0 | 0.0 | 0.00 | 0.00 | 0.00 | 26 | 1016.9 |
| 20260508055342 | 53 | 205 | 0.0 | 0.0 | 0.00 | 0.00 | 0.00 | 27 | 1017.0 |
| 20260508054832 | 53 | 205 | 0.0 | 0.0 | 0.00 | 0.00 | 0.00 | 27 | 1017.0 |
| 20260508054302 | 53 | 205 | 0.0 | 0.0 | 0.00 | 0.00 | 0.00 | 28 | 1017.0 |
| 20260508053844 | 53 | 205 | 0.0 | 0.0 | 0.00 | 0.00 | 0.00 | 28 | 1017.0 |
| 20260508053303 | 54 | 205 | 0.0 | 0.0 | 0.00 | 0.00 | 0.00 | 27 | 1017.0 |
| 20260508052839 | 54 | 205 | 0.0 | 0.0 | 0.00 | 0.00 | 0.00 | 27 | 1017.0 |
| 20260508052330 | 54 | 205 | 0.0 | 0.0 | 0.00 | 0.00 | 0.00 | 26 | 1017.0 |
| 20260508051802 | 54 | 205 | 0.0 | 0.0 | 0.00 | 0.00 | 0.00 | 26 | 1017.1 |
| 20260508051336 | 54 | 205 | 0.0 | 0.0 | 0.00 | 0.00 | 0.00 | 25 | 1017.0 |
| 20260508050831 | 54 | 205 | 0.0 | 0.0 | 0.00 | 0.00 | 0.00 | 26 | 1017.1 |
| 20260508050333 | 54 | 205 | 0.0 | 0.0 | 0.00 | 0.00 | 0.00 | 27 | 1017.1 |
| 20260508045818 | 55 | 205 | 0.0 | 0.0 | 0.00 | 0.00 | 0.00 | 26 | 1017.0 |
| 20260508045325 | 55 | 205 | 0.0 | 0.0 | 0.00 | 0.00 | 0.00 | 25 | 1017.0 |
| 20260508044830 | 55 | 205 | 0.0 | 0.0 | 0.00 | 0.00 | 0.00 | 26 | 1017.0 |
| 20260508044320 | 55 | 205 | 0.0 | 0.0 | 0.00 | 0.00 | 0.00 | 25 | 1017.0 |
| 20260508043815 | 56 | 205 | 0.0 | 0.0 | 0.00 | 0.00 | 0.00 | 25 | 1017.0 |
| 20260508043301 | 56 | 205 | 0.0 | 0.0 | 0.00 | 0.00 | 0.00 | 26 | 1017.1 |
| 20260508042809 | 56 | 205 | 0.0 | 0.0 | 0.00 | 0.00 | 0.00 | 26 | 1017.1 |
| 20260508042323 | 56 | 205 | 0.0 | 0.0 | 0.00 | 0.00 | 0.00 | 26 | 1017.0 |
| 20260508041823 | 56 | 205 | 0.0 | 0.0 | 0.00 | 0.00 | 0.00 | 25 | 1017.1 |
| 20260508041343 | 56 | 205 | 0.0 | 0.0 | 0.00 | 0.00 | 0.00 | 25 | 1017.1 |
| 20260508040844 | 56 | 205 | 0.0 | 0.0 | 0.00 | 0.00 | 0.00 | 25 | 1017.0 |
| 20260508040314 | 56 | 205 | 0.0 | 0.0 | 0.00 | 0.00 | 0.00 | 25 | 1017.0 |
| 20260508035810 | 56 | 205 | 0.0 | 0.0 | 0.00 | 0.00 | 0.00 | 25 | 1017.0 |
| 20260508035318 | 57 | 205 | 0.0 | 0.0 | 0.00 | 0.00 | 0.00 | 24 | 1017.0 |
| 20260508034829 | 57 | 205 | 0.0 | 0.0 | 0.00 | 0.00 | 0.00 | 23 | 1017.0 |
| 20260508034326 | 58 | 205 | 0.0 | 0.0 | 0.00 | 0.00 | 0.00 | 22 | 1016.8 |
| 20260508033805 | 58 | 205 | 0.0 | 0.0 | 0.00 | 0.00 | 0.00 | 22 | 1016.7 |
| 20260508033338 | 58 | 205 | 0.0 | 0.0 | 0.00 | 0.00 | 0.00 | 22 | 1016.7 |
| 20260508032832 | 59 | 205 | 0.0 | 0.0 | 0.00 | 0.00 | 0.00 | 22 | 1016.5 |
| 20260508032306 | 59 | 205 | 0.0 | 0.0 | 0.00 | 0.00 | 0.00 | 21 | 1016.4 |
| 20260508031809 | 59 | 205 | 0.0 | 0.0 | 0.00 | 0.00 | 0.00 | 21 | 1016.3 |
| 20260508031324 | 59 | 205 | 0.0 | 0.0 | 0.00 | 0.00 | 0.00 | 21 | 1016.2 |
| 20260508030839 | 60 | 205 | 0.0 | 0.0 | 0.00 | 0.00 | 0.00 | 22 | 1016.2 |
| 20260508030325 | 60 | 205 | 0.0 | 0.0 | 0.00 | 0.00 | 0.00 | 21 | 1016.1 |
| 20260508025832 | 60 | 205 | 0.0 | 0.0 | 0.00 | 0.00 | 0.00 | 21 | 1016.2 |
| 20260508025327 | 60 | 205 | 0.0 | 0.0 | 0.00 | 0.00 | 0.00 | 21 | 1016.1 |
| 20260508024840 | 61 | 205 | 0.0 | 0.0 | 0.00 | 0.00 | 0.00 | 21 | 1016.1 |
| 20260508024331 | 61 | 205 | 0.0 | 0.0 | 0.00 | 0.00 | 0.00 | 20 | 1015.9 |
| 20260508023801 | 61 | 205 | 0.0 | 0.0 | 0.00 | 0.00 | 0.00 | 20 | 1015.9 |
| 20260508023321 | 62 | 205 | 0.0 | 0.0 | 0.00 | 0.00 | 0.00 | 20 | 1015.9 |
| 20260508022830 | 63 | 205 | 0.0 | 0.0 | 0.00 | 0.00 | 0.00 | 19 | 1015.8 |
| 20260508022310 | 63 | 205 | 0.0 | 0.0 | 0.00 | 0.00 | 0.00 | 18 | 1015.8 |
| 20260508021802 | 64 | 205 | 0.0 | 0.0 | 0.00 | 0.00 | 0.00 | 16 | 1015.7 |
| 20260508021314 | 65 | 205 | 0.0 | 0.0 | 0.00 | 0.00 | 0.00 | 15 | 1015.6 |
| 20260508020847 | 66 | 205 | 0.0 | 0.0 | 0.00 | 0.00 | 0.00 | 14 | 1015.6 |
| 20260508020310 | 67 | 205 | 0.0 | 0.0 | 0.00 | 0.00 | 0.00 | 14 | 1015.5 |
| 20260508015822 | 67 | 205 | 0.0 | 0.0 | 0.00 | 0.00 | 0.00 | 14 | 1015.1 |
| 20260508015324 | 68 | 205 | 0.0 | 0.0 | 0.00 | 0.00 | 0.00 | 13 | 1015.2 |
| 20260508014835 | 68 | 205 | 0.0 | 0.0 | 0.00 | 0.00 | 0.00 | 13 | 1015.0 |
| 20260508014303 | 69 | 205 | 0.0 | 0.0 | 0.00 | 0.00 | 0.00 | 13 | 1015.4 |
| 20260508013834 | 69 | 205 | 0.0 | 0.9 | 0.00 | 0.00 | 0.00 | 13 | 1015.2 |
| 20260508013318 | 70 | 213 | 0.0 | 0.0 | 0.00 | 0.00 | 0.00 | 12 | 1015.3 |
| 20260508012833 | 70 | 208 | 0.0 | 2.6 | 0.00 | 0.00 | 0.00 | 12 | 1015.2 |
| 20260508012337 | 70 | 205 | 0.0 | 1.7 | 0.00 | 0.00 | 0.00 | 12 | 1015.2 |
| 20260508011803 | 70 | 208 | 0.0 | 0.0 | 0.00 | 0.00 | 0.00 | 12 | 1015.2 |
| 20260508011339 | 71 | 214 | 0.0 | 2.6 | 0.00 | 0.00 | 0.00 | 11 | 1015.2 |
| 20260508010832 | 71 | 215 | 0.0 | 2.6 | 0.00 | 0.00 | 0.00 | 11 | 1015.2 |
| 20260508010316 | 71 | 192 | 0.0 | 0.0 | 0.00 | 0.00 | 0.00 | 11 | 1015.3 |
| 20260508005814 | 72 | 198 | 0.0 | 0.9 | 0.00 | 0.00 | 0.00 | 11 | 1014.9 |
| 20260508005322 | 72 | 193 | 0.0 | 0.9 | 0.00 | 0.00 | 0.00 | 10 | 1014.9 |
| 20260508004844 | 72 | 207 | 0.0 | 0.9 | 0.00 | 0.00 | 0.00 | 10 | 1015.0 |
| 20260508004326 | 73 | 219 | 0.0 | 5.2 | 0.00 | 0.00 | 0.00 | 10 | 1015.0 |
| 20260508003810 | 73 | 218 | 0.0 | 0.9 | 0.00 | 0.00 | 0.00 | 10 | 1015.0 |
| 20260508003321 | 73 | 226 | 0.9 | 1.7 | 0.00 | 0.00 | 0.00 | 10 | 1014.9 |
| 20260508002815 | 73 | 171 | 0.0 | 0.0 | 0.00 | 0.00 | 0.00 | 10 | 1015.0 |
| 20260508002312 | 73 | 164 | 0.0 | 1.7 | 0.00 | 0.00 | 0.00 | 9 | 1014.9 |
| 20260508001818 | 73 | 234 | 0.0 | 0.0 | 0.00 | 0.00 | 0.00 | 9 | 1015.1 |
| 20260508001305 | 73 | 225 | 0.9 | 2.6 | 0.00 | 0.00 | 0.00 | 10 | 1015.1 |
| 20260508000804 | 73 | 251 | 0.9 | 1.7 | 0.00 | 0.00 | 0.00 | 10 | 1015.1 |
| 20260508000334 | 74 | 222 | 0.0 | 0.0 | 0.00 | 0.00 | 0.00 | 9 | 1015.0 |
| 20260507235834 | 74 | 240 | 0.0 | 2.6 | 0.00 | 0.00 | 0.00 | 9 | 1015.1 |
| 20260507235344 | 74 | 215 | 0.9 | 5.2 | 0.00 | 0.00 | 0.00 | 9 | 1015.1 |
| 20260507234827 | 74 | 247 | 1.7 | 4.3 | 0.00 | 0.00 | 0.00 | 9 | 1015.1 |
| 20260507234326 | 74 | 196 | 0.0 | 3.5 | 0.00 | 0.00 | 0.00 | 9 | 1015.2 |
| 20260507233818 | 74 | 210 | 1.7 | 6.1 | 0.00 | 0.00 | 0.00 | 9 | 1015.3 |
| 20260507233341 | 74 | 221 | 0.9 | 3.5 | 0.00 | 0.00 | 0.00 | 8 | 1015.4 |
| 20260507232829 | 74 | 220 | 0.0 | 1.7 | 0.00 | 0.00 | 0.00 | 9 | 1015.5 |
| 20260507232329 | 74 | 217 | 1.7 | 5.2 | 0.00 | 0.00 | 0.00 | 8 | 1015.5 |
| 20260507231829 | 75 | 255 | 2.6 | 4.3 | 0.00 | 0.00 | 0.00 | 9 | 1015.6 |
| 20260507231328 | 74 | 218 | 0.9 | 3.5 | 0.00 | 0.00 | 0.00 | 9 | 1015.6 |
| 20260507230822 | 73 | 27 | 0.0 | 1.7 | 0.00 | 0.00 | 0.00 | 9 | 1015.7 |
| 20260507230330 | 73 | 66 | 0.0 | 0.9 | 0.00 | 0.00 | 0.00 | 8 | 1015.8 |
| 20260507225825 | 74 | 241 | 0.9 | 3.5 | 0.00 | 0.00 | 0.00 | 8 | 1015.6 |
| 20260507225313 | 74 | 232 | 1.7 | 4.3 | 0.00 | 0.00 | 0.00 | 9 | 1015.7 |
| 20260507224813 | 73 | 246 | 0.0 | 0.0 | 0.00 | 0.00 | 0.00 | 9 | 1015.6 |
| 20260507224310 | 73 | 293 | 0.0 | 1.7 | 0.00 | 0.00 | 0.00 | 10 | 1015.7 |
| 20260507223802 | 73 | 301 | 0.0 | 2.6 | 0.00 | 0.00 | 0.00 | 9 | 1015.7 |
| 20260507223314 | 74 | 326 | 1.7 | 3.5 | 0.00 | 0.00 | 0.00 | 10 | 1015.9 |
| 20260507222821 | 73 | 247 | 0.9 | 3.5 | 0.00 | 0.00 | 0.00 | 10 | 1015.9 |
| 20260507222313 | 74 | 290 | 1.7 | 5.2 | 0.00 | 0.00 | 0.00 | 10 | 1016.1 |
| 20260507221844 | 74 | 242 | 0.0 | 1.7 | 0.00 | 0.00 | 0.00 | 9 | 1016.1 |
| 20260507221336 | 73 | 204 | 0.9 | 3.5 | 0.00 | 0.00 | 0.00 | 10 | 1016.1 |
| 20260507220801 | 73 | 355 | 0.0 | 3.5 | 0.00 | 0.00 | 0.00 | 9 | 1016.1 |
| 20260507220344 | 72 | 10 | 0.0 | 0.0 | 0.00 | 0.00 | 0.00 | 8 | 1016.2 |
| 20260507215843 | 72 | 298 | 0.0 | 2.6 | 0.00 | 0.00 | 0.00 | 10 | 1016.3 |
| 20260507215329 | 73 | 274 | 0.9 | 3.5 | 0.00 | 0.00 | 0.00 | 11 | 1016.4 |
| 20260507214802 | 73 | 256 | 0.9 | 1.7 | 0.00 | 0.00 | 0.00 | 10 | 1016.6 |
| 20260507214300 | 73 | 254 | 0.9 | 4.3 | 0.00 | 0.00 | 0.00 | 12 | 1016.6 |
| 20260507213812 | 72 | 315 | 0.0 | 0.0 | 0.00 | 0.00 | 0.00 | 11 | 1016.7 |
| 20260507213340 | 73 | 339 | 0.0 | 2.6 | 0.00 | 0.00 | 0.00 | 11 | 1016.8 |
| 20260507212835 | 72 | 319 | 1.7 | 5.2 | 0.00 | 0.00 | 0.00 | 12 | 1016.9 |
| 20260507212315 | 72 | 243 | 0.9 | 2.6 | 0.00 | 0.00 | 0.00 | 11 | 1017.1 |
| 20260507211819 | 72 | 275 | 1.7 | 7.0 | 0.00 | 0.00 | 0.00 | 12 | 1017.2 |
| 20260507211304 | 71 | 237 | 1.7 | 4.3 | 0.00 | 0.00 | 0.00 | 12 | 1017.2 |
| 20260507210841 | 71 | 240 | 3.5 | 4.3 | 0.00 | 0.00 | 0.00 | 13 | 1017.4 |
| 20260507210339 | 71 | 254 | 0.0 | 0.0 | 0.00 | 0.00 | 0.00 | 13 | 1017.6 |
| 20260507205827 | 72 | 303 | 0.9 | 5.2 | 0.00 | 0.00 | 0.00 | 14 | 1017.6 |
| 20260507205321 | 72 | 257 | 2.6 | 7.0 | 0.00 | 0.00 | 0.00 | 14 | 1017.7 |
| 20260507204814 | 72 | 239 | 2.6 | 7.0 | 0.00 | 0.00 | 0.00 | 14 | 1017.9 |
| 20260507204307 | 70 | 247 | 0.9 | 2.6 | 0.00 | 0.00 | 0.00 | 14 | 1017.9 |
| 20260507203806 | 70 | 27 | 0.0 | 0.9 | 0.00 | 0.00 | 0.00 | 13 | 1018.0 |
| 20260507203308 | 71 | 291 | 0.0 | 0.9 | 0.00 | 0.00 | 0.00 | 15 | 1018.1 |
| 20260507202801 | 70 | 301 | 1.7 | 4.3 | 0.00 | 0.00 | 0.00 | 15 | 1018.2 |
| 20260507202334 | 71 | 282 | 0.9 | 4.3 | 0.00 | 0.00 | 0.00 | 14 | 1018.3 |
| 20260507201822 | 71 | 212 | 0.9 | 3.5 | 0.00 | 0.00 | 0.00 | 16 | 1018.4 |
| 20260507201340 | 68 | 235 | 2.6 | 6.1 | 0.00 | 0.00 | 0.00 | 17 | 1018.5 |
| 20260507200816 | 69 | 253 | 0.9 | 5.2 | 0.00 | 0.00 | 0.00 | 16 | 1018.7 |
| 20260507200302 | 68 | 215 | 0.0 | 0.0 | 0.00 | 0.00 | 0.00 | 17 | 1018.7 |
| 20260507195818 | 67 | 267 | 0.9 | 6.1 | 0.00 | 0.00 | 0.00 | 17 | 1018.4 |
| 20260507195334 | 68 | 323 | 0.0 | 2.6 | 0.00 | 0.00 | 0.00 | 18 | 1018.4 |
| 20260507194818 | 68 | 326 | 0.9 | 3.5 | 0.00 | 0.00 | 0.00 | 19 | 1018.6 |
| 20260507194323 | 68 | 244 | 0.0 | 3.5 | 0.00 | 0.00 | 0.00 | 19 | 1018.5 |
| 20260507193831 | 67 | 343 | 0.0 | 0.0 | 0.00 | 0.00 | 0.00 | 21 | 1018.7 |
| 20260507193310 | 66 | 338 | 0.0 | 0.0 | 0.00 | 0.00 | 0.00 | 22 | 1018.9 |
| 20260507192811 | 66 | 281 | 0.9 | 3.5 | 0.00 | 0.00 | 0.00 | 22 | 1019.0 |
| 20260507192341 | 67 | 247 | 0.0 | 5.2 | 0.00 | 0.00 | 0.00 | 21 | 1019.1 |
| 20260507191842 | 67 | 276 | 0.9 | 4.3 | 0.00 | 0.00 | 0.00 | 22 | 1019.2 |
| 20260507191317 | 65 | 310 | 0.0 | 1.7 | 0.00 | 0.00 | 0.00 | 23 | 1019.2 |
| 20260507190843 | 65 | 207 | 0.0 | 2.6 | 0.00 | 0.00 | 0.00 | 22 | 1019.3 |
| 20260507190325 | 65 | 217 | 0.0 | 1.7 | 0.00 | 0.00 | 0.00 | 22 | 1019.5 |
| 20260507185836 | 66 | 258 | 0.9 | 5.2 | 0.00 | 0.00 | 0.00 | 21 | 1019.5 |
| 20260507185334 | 65 | 211 | 0.9 | 4.3 | 0.00 | 0.00 | 0.00 | 22 | 1019.6 |
| 20260507184827 | 65 | 204 | 0.0 | 0.9 | 0.00 | 0.00 | 0.00 | 22 | 1019.7 |
| 20260507184323 | 65 | 230 | 1.7 | 5.2 | 0.00 | 0.00 | 0.00 | 22 | 1019.8 |
| 20260507183831 | 65 | 234 | 0.0 | 4.3 | 0.00 | 0.00 | 0.00 | 22 | 1019.9 |
| 20260507183325 | 65 | 241 | 0.9 | 4.3 | 0.00 | 0.00 | 0.00 | 24 | 1020.0 |
| 20260507182827 | 64 | 246 | 0.0 | 4.3 | 0.00 | 0.00 | 0.00 | 23 | 1020.0 |
| 20260507182329 | 63 | 290 | 0.0 | 1.7 | 0.00 | 0.00 | 0.00 | 25 | 1020.1 |
| 20260507181815 | 63 | 287 | 0.0 | 0.9 | 0.00 | 0.00 | 0.00 | 23 | 1020.2 |
| 20260507181319 | 64 | 318 | 0.0 | 1.7 | 0.00 | 0.00 | 0.00 | 24 | 1020.4 |
| 20260507180823 | 64 | 269 | 0.9 | 4.3 | 0.00 | 0.00 | 0.00 | 24 | 1020.4 |
| 20260507180304 | 63 | 240 | 0.9 | 3.5 | 0.00 | 0.00 | 0.00 | 25 | 1020.5 |
| 20260507175816 | 63 | 346 | 0.0 | 2.6 | 0.00 | 0.00 | 0.00 | 26 | 1020.5 |
| 20260507175321 | 64 | 261 | 0.9 | 4.3 | 0.00 | 0.00 | 0.00 | 25 | 1020.6 |
| 20260507174804 | 63 | 243 | 0.9 | 4.3 | 0.00 | 0.00 | 0.00 | 28 | 1020.6 |
| 20260507174339 | 62 | 332 | 0.9 | 3.5 | 0.00 | 0.00 | 0.00 | 26 | 1020.6 |
| 20260507173814 | 61 | 353 | 0.0 | 1.7 | 0.00 | 0.00 | 0.00 | 28 | 1020.6 |
| 20260507173305 | 61 | 354 | 0.0 | 1.7 | 0.00 | 0.00 | 0.00 | 29 | 1020.8 |
| 20260507172801 | 61 | 291 | 0.0 | 0.0 | 0.00 | 0.00 | 0.00 | 28 | 1020.8 |
| 20260507172307 | 60 | 20 | 0.0 | 0.0 | 0.00 | 0.00 | 0.00 | 29 | 1020.9 |
| 20260507171833 | 60 | 331 | 0.9 | 3.5 | 0.00 | 0.00 | 0.00 | 31 | 1021.0 |
| 20260507171305 | 60 | 300 | 0.0 | 2.6 | 0.00 | 0.00 | 0.00 | 30 | 1021.1 |
| 20260507170827 | 61 | 319 | 0.0 | 1.7 | 0.00 | 0.00 | 0.00 | 29 | 1021.2 |
| 20260507170327 | 60 | 261 | 0.0 | 0.0 | 0.00 | 0.00 | 0.00 | 30 | 1021.2 |
| 20260507165843 | 59 | 164 | 0.0 | 0.0 | 0.00 | 0.00 | 0.00 | 30 | 1021.2 |
| 20260507165321 | 59 | 248 | 0.0 | 0.0 | 0.00 | 0.00 | 0.00 | 28 | 1021.3 |
| 20260507164840 | 58 | 255 | 1.7 | 4.3 | 0.00 | 0.00 | 0.00 | 30 | 1021.3 |
| 20260507164337 | 58 | 254 | 0.9 | 2.6 | 0.00 | 0.00 | 0.00 | 29 | 1021.3 |
| 20260507163834 | 58 | 324 | 0.0 | 0.0 | 0.00 | 0.00 | 0.00 | 29 | 1021.3 |
| 20260507163314 | 58 | 312 | 0.0 | 0.0 | 0.00 | 0.00 | 0.00 | 31 | 1021.5 |
| 20260507162845 | 59 | 258 | 2.6 | 7.0 | 0.00 | 0.00 | 0.00 | 30 | 1021.5 |
| 20260507162328 | 57 | 269 | 0.0 | 2.6 | 0.00 | 0.00 | 0.00 | 35 | 1021.5 |
| 20260507161824 | 57 | 278 | 0.0 | 0.0 | 0.00 | 0.00 | 0.00 | 35 | 1021.5 |
| 20260507161309 | 56 | 250 | 0.0 | 2.6 | 0.00 | 0.00 | 0.00 | 37 | 1021.7 |
| 20260507160824 | 56 | 306 | 0.0 | 1.7 | 0.00 | 0.00 | 0.00 | 38 | 1021.8 |
| 20260507160317 | 56 | 304 | 0.0 | 0.0 | 0.00 | 0.00 | 0.00 | 37 | 1021.7 |
| 20260507155831 | 55 | 254 | 0.0 | 3.5 | 0.00 | 0.00 | 0.00 | 39 | 1021.7 |
| 20260507155344 | 55 | 274 | 0.0 | 2.6 | 0.00 | 0.00 | 0.00 | 40 | 1021.7 |
| 20260507154812 | 54 | 289 | 0.0 | 0.0 | 0.00 | 0.00 | 0.00 | 41 | 1021.8 |
| 20260507154346 | 54 | 258 | 0.9 | 3.5 | 0.00 | 0.00 | 0.00 | 41 | 1021.9 |
| 20260507153807 | 53 | 273 | 0.0 | 1.7 | 0.00 | 0.00 | 0.00 | 42 | 1021.9 |
| 20260507153306 | 52 | 260 | 0.0 | 0.9 | 0.00 | 0.00 | 0.00 | 43 | 1022.0 |
| 20260507152829 | 52 | 257 | 0.0 | 2.6 | 0.00 | 0.00 | 0.00 | 43 | 1022.0 |
| 20260507152321 | 52 | 257 | 0.9 | 3.5 | 0.00 | 0.00 | 0.00 | 45 | 1022.1 |
| 20260507151825 | 51 | 263 | 0.0 | 0.0 | 0.00 | 0.00 | 0.00 | 45 | 1022.0 |
| 20260507151302 | 51 | 263 | 0.0 | 0.9 | 0.00 | 0.00 | 0.00 | 45 | 1022.2 |
| 20260507150823 | 50 | 261 | 0.0 | 0.0 | 0.00 | 0.00 | 0.00 | 46 | 1021.8 |
| 20260507150323 | 50 | 260 | 0.0 | 0.0 | 0.00 | 0.00 | 0.00 | 44 | 1021.8 |
| 20260507145802 | 49 | 260 | 0.0 | 1.7 | 0.00 | 0.00 | 0.00 | 48 | 1022.2 |
| 20260507145325 | 49 | 260 | 0.0 | 0.0 | 0.00 | 0.00 | 0.00 | 49 | 1022.4 |
| 20260507144829 | 49 | 260 | 0.0 | 0.0 | 0.00 | 0.00 | 0.00 | 48 | 1022.5 |
| 20260507144316 | 48 | 259 | 0.9 | 2.6 | 0.00 | 0.00 | 0.00 | 50 | 1022.1 |
| 20260507143805 | 47 | 259 | 0.0 | 0.0 | 0.00 | 0.00 | 0.00 | 51 | 1022.0 |
| 20260507143307 | 47 | 259 | 0.0 | 0.0 | 0.00 | 0.00 | 0.00 | 52 | 1022.0 |
| 20260507142830 | 46 | 259 | 0.0 | 0.0 | 0.00 | 0.00 | 0.00 | 54 | 1022.1 |
| 20260507142329 | 45 | 259 | 0.0 | 0.0 | 0.00 | 0.00 | 0.00 | 55 | 1022.2 |
| 20260507141834 | 45 | 259 | 0.0 | 0.0 | 0.00 | 0.00 | 0.00 | 56 | 1022.1 |
| 20260507141312 | 45 | 258 | 0.0 | 0.0 | 0.00 | 0.00 | 0.00 | 56 | 1022.1 |
| 20260507140841 | 45 | 257 | 0.0 | 0.0 | 0.00 | 0.00 | 0.00 | 58 | 1022.0 |
| 20260507140339 | 45 | 257 | 0.0 | 0.0 | 0.00 | 0.00 | 0.00 | 58 | 1022.0 |
| 20260507135845 | 44 | 263 | 0.9 | 1.7 | 0.00 | 0.00 | 0.00 | 59 | 1022.0 |
| 20260507135325 | 43 | 270 | 0.0 | 0.0 | 0.00 | 0.00 | 0.00 | 59 | 1022.0 |
| 20260507134814 | 43 | 318 | 0.0 | 0.0 | 0.00 | 0.00 | 0.00 | 60 | 1022.0 |
| 20260507134344 | 42 | 318 | 0.0 | 0.0 | 0.00 | 0.00 | 0.00 | 60 | 1022.0 |
| 20260507133817 | 42 | 318 | 0.0 | 0.0 | 0.00 | 0.00 | 0.00 | 63 | 1021.9 |
| 20260507133319 | 41 | 318 | 0.0 | 0.0 | 0.00 | 0.00 | 0.00 | 63 | 1021.9 |
| 20260507132839 | 41 | 318 | 0.0 | 0.0 | 0.00 | 0.00 | 0.00 | 65 | 1022.0 |
| 20260507132317 | 40 | 318 | 0.0 | 0.0 | 0.00 | 0.00 | 0.00 | 65 | 1021.8 |
| 20260507131843 | 39 | 318 | 0.0 | 0.0 | 0.00 | 0.00 | 0.00 | 65 | 1021.7 |
| 20260507131337 | 38 | 318 | 0.0 | 0.0 | 0.00 | 0.00 | 0.00 | 66 | 1021.7 |
| 20260507130806 | 37 | 318 | 0.0 | 0.0 | 0.00 | 0.00 | 0.00 | 68 | 1021.7 |
| 20260507130327 | 36 | 318 | 0.0 | 0.0 | 0.00 | 0.00 | 0.00 | 68 | 1021.6 |
| 20260507125812 | 36 | 318 | 0.0 | 0.0 | 0.00 | 0.00 | 0.00 | 68 | 1021.6 |
| 20260507125313 | 36 | 318 | 0.0 | 0.0 | 0.00 | 0.00 | 0.00 | 69 | 1021.5 |
| 20260507124840 | 36 | 318 | 0.0 | 0.0 | 0.00 | 0.00 | 0.00 | 69 | 1021.5 |
| 20260507124306 | 36 | 318 | 0.0 | 0.0 | 0.00 | 0.00 | 0.00 | 69 | 1021.4 |
| 20260507123845 | 36 | 318 | 0.0 | 0.0 | 0.00 | 0.00 | 0.00 | 68 | 1021.5 |
| 20260507123346 | 36 | 318 | 0.0 | 0.0 | 0.00 | 0.00 | 0.00 | 68 | 1021.3 |
| 20260507122805 | 36 | 318 | 0.0 | 0.0 | 0.00 | 0.00 | 0.00 | 70 | 1021.3 |
| 20260507122313 | 36 | 318 | 0.0 | 0.0 | 0.00 | 0.00 | 0.00 | 71 | 1021.2 |
| 20260507121838 | 35 | 318 | 0.0 | 0.0 | 0.00 | 0.00 | 0.00 | 73 | 1021.1 |
| 20260507121319 | 35 | 318 | 0.0 | 0.0 | 0.00 | 0.00 | 0.00 | 71 | 1021.1 |
| 20260507120843 | 35 | 318 | 0.0 | 0.0 | 0.00 | 0.00 | 0.00 | 70 | 1021.1 |
| 20260507120310 | 35 | 318 | 0.0 | 0.0 | 0.00 | 0.00 | 0.00 | 69 | 1021.1 |
| 20260507115805 | 36 | 318 | 0.0 | 0.0 | 0.00 | 0.00 | 0.00 | 69 | 1021.5 |
| 20260507115327 | 36 | 318 | 0.0 | 0.0 | 0.00 | 0.00 | 0.00 | 69 | 1021.5 |
| 20260507114837 | 36 | 318 | 0.0 | 0.0 | 0.00 | 0.00 | 0.00 | 68 | 1021.4 |
| 20260507114311 | 36 | 318 | 0.0 | 0.0 | 0.00 | 0.00 | 0.00 | 67 | 1021.4 |
| 20260507113844 | 37 | 318 | 0.0 | 0.0 | 0.00 | 0.00 | 0.00 | 67 | 1021.4 |
| 20260507113330 | 37 | 318 | 0.0 | 0.0 | 0.00 | 0.00 | 0.00 | 66 | 1021.4 |
| 20260507112809 | 37 | 318 | 0.0 | 0.0 | 0.00 | 0.00 | 0.00 | 66 | 1021.4 |
| 20260507112345 | 37 | 318 | 0.0 | 0.0 | 0.00 | 0.00 | 0.00 | 65 | 1021.5 |
| 20260507111846 | 37 | 318 | 0.0 | 0.0 | 0.00 | 0.00 | 0.00 | 63 | 1021.5 |
| 20260507111325 | 37 | 318 | 0.0 | 0.0 | 0.00 | 0.00 | 0.00 | 62 | 1021.5 |
| 20260507110802 | 37 | 318 | 0.0 | 0.0 | 0.00 | 0.00 | 0.00 | 62 | 1021.5 |
| 20260507110325 | 37 | 318 | 0.0 | 0.0 | 0.00 | 0.00 | 0.00 | 61 | 1021.5 |
| 20260507105315 | 37 | 318 | 0.0 | 0.0 | 0.00 | 0.00 | 0.00 | 60 | 1021.5 |
| 20260507104806 | 38 | 318 | 0.0 | 0.0 | 0.00 | 0.00 | 0.00 | 58 | 1021.5 |
| 20260507104312 | 38 | 318 | 0.0 | 0.0 | 0.00 | 0.00 | 0.00 | 57 | 1021.5 |
| 20260507103810 | 38 | 318 | 0.0 | 0.0 | 0.00 | 0.00 | 0.00 | 57 | 1021.4 |
| 20260507103323 | 39 | 318 | 0.0 | 0.0 | 0.00 | 0.00 | 0.00 | 55 | 1021.5 |
| 20260507102820 | 39 | 318 | 0.0 | 0.0 | 0.00 | 0.00 | 0.00 | 55 | 1021.5 |
| 20260507102341 | 39 | 318 | 0.0 | 0.0 | 0.00 | 0.00 | 0.00 | 54 | 1021.4 |
| 20260507101823 | 39 | 318 | 0.0 | 0.0 | 0.00 | 0.00 | 0.00 | 51 | 1021.3 |
| 20260507101410 | 39 | 318 | 0.0 | 0.0 | 0.00 | 0.00 | 0.00 | 50 | 1021.4 |
| 20260507100828 | 39 | 318 | 0.0 | 0.0 | 0.00 | 0.00 | 0.00 | 50 | 1021.3 |
| 20260507100312 | 40 | 318 | 0.0 | 0.0 | 0.00 | 0.00 | 0.00 | 49 | 1021.3 |
| 20260507095829 | 40 | 318 | 0.0 | 0.0 | 0.00 | 0.00 | 0.00 | 49 | 1021.2 |
| 20260507095337 | 40 | 318 | 0.0 | 0.0 | 0.00 | 0.00 | 0.00 | 48 | 1021.1 |
| 20260507094834 | 40 | 318 | 0.0 | 0.0 | 0.00 | 0.00 | 0.00 | 48 | 1021.3 |
| 20260507094342 | 40 | 318 | 0.0 | 0.0 | 0.00 | 0.00 | 0.00 | 47 | 1021.1 |
| 20260507093834 | 40 | 318 | 0.0 | 0.0 | 0.00 | 0.00 | 0.00 | 48 | 1021.1 |
| 20260507093305 | 40 | 318 | 0.0 | 0.0 | 0.00 | 0.00 | 0.00 | 47 | 1021.0 |
| 20260507092826 | 40 | 318 | 0.0 | 0.0 | 0.00 | 0.00 | 0.00 | 46 | 1021.1 |
| 20260507092346 | 40 | 318 | 0.0 | 0.0 | 0.00 | 0.00 | 0.00 | 46 | 1021.1 |
| 20260507091811 | 41 | 318 | 0.0 | 0.0 | 0.00 | 0.00 | 0.00 | 45 | 1021.0 |
| 20260507091332 | 41 | 318 | 0.0 | 0.0 | 0.00 | 0.00 | 0.00 | 43 | 1021.0 |
| 20260507090845 | 42 | 318 | 0.0 | 0.0 | 0.00 | 0.00 | 0.00 | 43 | 1020.9 |
| 20260507090339 | 42 | 318 | 0.0 | 0.0 | 0.00 | 0.00 | 0.00 | 43 | 1020.9 |
| 20260507085828 | 42 | 318 | 0.0 | 0.0 | 0.00 | 0.00 | 0.00 | 42 | 1021.2 |
| 20260507085306 | 42 | 318 | 0.0 | 0.0 | 0.00 | 0.00 | 0.00 | 41 | 1021.3 |
| 20260507084829 | 42 | 318 | 0.0 | 0.0 | 0.00 | 0.00 | 0.00 | 41 | 1021.1 |
| 20260507084322 | 42 | 318 | 0.0 | 0.0 | 0.00 | 0.00 | 0.00 | 42 | 1021.1 |
| 20260507083842 | 43 | 318 | 0.0 | 0.0 | 0.00 | 0.00 | 0.00 | 41 | 1021.1 |
| 20260507083313 | 44 | 318 | 0.0 | 0.0 | 0.00 | 0.00 | 0.00 | 38 | 1021.1 |
| 20260507082808 | 45 | 318 | 0.0 | 0.0 | 0.00 | 0.00 | 0.00 | 36 | 1021.0 |
| 20260507082322 | 45 | 318 | 0.0 | 1.7 | 0.00 | 0.00 | 0.00 | 36 | 1021.0 |
| 20260507081801 | 44 | 318 | 0.0 | 0.0 | 0.00 | 0.00 | 0.00 | 37 | 1021.1 |
| 20260507081329 | 44 | 318 | 0.0 | 0.0 | 0.00 | 0.00 | 0.00 | 38 | 1021.1 |
| 20260507080837 | 44 | 318 | 0.0 | 0.0 | 0.00 | 0.00 | 0.00 | 38 | 1020.9 |
| 20260507080331 | 44 | 318 | 0.0 | 0.0 | 0.00 | 0.00 | 0.00 | 38 | 1020.9 |
| 20260507075839 | 45 | 318 | 0.0 | 0.0 | 0.00 | 0.00 | 0.00 | 37 | 1020.9 |
| 20260507075338 | 45 | 318 | 0.0 | 0.0 | 0.00 | 0.00 | 0.00 | 36 | 1020.9 |
| 20260507074807 | 46 | 318 | 0.0 | 0.0 | 0.00 | 0.00 | 0.00 | 35 | 1020.8 |
| 20260507074339 | 46 | 318 | 0.0 | 0.0 | 0.00 | 0.00 | 0.00 | 35 | 1020.9 |
| 20260507073818 | 47 | 318 | 0.0 | 0.0 | 0.00 | 0.00 | 0.00 | 33 | 1020.9 |
| 20260507073328 | 47 | 318 | 0.0 | 0.0 | 0.00 | 0.00 | 0.00 | 33 | 1020.9 |
| 20260507072800 | 47 | 318 | 0.0 | 0.0 | 0.00 | 0.00 | 0.00 | 34 | 1020.9 |
| 20260507072329 | 47 | 318 | 0.0 | 0.0 | 0.00 | 0.00 | 0.00 | 33 | 1020.8 |
| 20260507071815 | 47 | 318 | 0.0 | 0.0 | 0.00 | 0.00 | 0.00 | 33 | 1020.7 |
| 20260507071310 | 47 | 318 | 0.0 | 0.0 | 0.00 | 0.00 | 0.00 | 33 | 1020.6 |
| 20260507070802 | 48 | 318 | 0.0 | 0.0 | 0.00 | 0.00 | 0.00 | 32 | 1020.7 |
| 20260507070342 | 48 | 318 | 0.0 | 0.0 | 0.00 | 0.00 | 0.00 | 32 | 1020.5 |
| 20260507065821 | 48 | 317 | 0.0 | 0.0 | 0.00 | 0.00 | 0.00 | 33 | 1020.5 |